WetterOnline ( http://www.wetteronline.at )

Wetter aktuell Pforzheim

Aktuelles Wetter: Mühlacker (245m)

6-stündlich | Neueste Meldungen
Ortszeit Temperatur Wetter
So, 18.02. 19:00 0.2° C bedeckt
So, 18.02. 13:00 -0.9° C bedeckt
So, 18.02. 7:00 -2.3° C Nebel
So, 18.02. 1:00 -0.1° C bewölkt
Sa, 17.02. 19:00 0.6° C leichter Schneefall
Sa, 17.02. 13:00 0.6° C Schneefall
Sa, 17.02. 7:00 -0.1° C bewölkt
Sa, 17.02. 1:00 -2.0° C fast wolkenlos
Ortszeit Temperatur Wetter
So, 18.02. 23:00 -0.0° C bedeckt
So, 18.02. 22:40 -0.0° C bedeckt
So, 18.02. 22:30 0.1° C bedeckt
So, 18.02. 22:20 0.1° C bedeckt
So, 18.02. 22:10 0.1° C bedeckt
So, 18.02. 22:00 0.1° C bedeckt
So, 18.02. 21:50 0.1° C bedeckt
So, 18.02. 21:30 0.1° C bedeckt
So, 18.02. 21:00 0.1° C bedeckt
So, 18.02. 20:30 0.1° C bedeckt
So, 18.02. 20:00 0.1° C bedeckt
Ortszeit Relative Feuchte Sichtweite
So, 18.02. 19:00 89% 7 km
So, 18.02. 13:00 96% 1.9 km
So, 18.02. 7:00 99% 100 m
So, 18.02. 1:00 97% 2.8 km
Sa, 17.02. 19:00 92% 2.8 km
Sa, 17.02. 13:00 96% 0.7 km
Sa, 17.02. 7:00 96% 4.1 km
Sa, 17.02. 1:00 99% 3.4 km
Ortszeit Relative Feuchte Sichtweite
So, 18.02. 23:00 94% 3.0 km
So, 18.02. 22:40 94% -
So, 18.02. 22:30 92% 4.6 km
So, 18.02. 22:20 92% -
So, 18.02. 22:10 93% -
So, 18.02. 22:00 92% 4.7 km
So, 18.02. 21:50 92% -
So, 18.02. 21:30 92% 4.3 km
So, 18.02. 21:00 91% 4.5 km
So, 18.02. 20:30 90% 5.0 km
So, 18.02. 20:00 90% 5.0 km
Ortszeit Niederschlagsmenge Niederschlagsart
So, 18.02. 19:00 0.0 l/m2 in 12 Std. -
So, 18.02. 13:00 0.0 l/m2 in 6 Std. -
So, 18.02. 7:00 0.5 l/m2 in 12 Std. -
So, 18.02. 1:00 0.5 l/m2 in 6 Std. Schnee
Sa, 17.02. 19:00 6 l/m2 in 12 Std. Schnee
Sa, 17.02. 13:00 2 l/m2 in 6 Std. Schnee, Regen
Sa, 17.02. 7:00 0.0 l/m2 in 12 Std. -
Sa, 17.02. 1:00 0.0 l/m2 in 6 Std. -
Ortszeit Niederschlagsmenge Niederschlagsart
So, 18.02. 23:00 0.0 l/m2 in 1 Std. -
So, 18.02. 22:40 keine Meldung -
So, 18.02. 22:30 0.0 l/m2 in 1 Std. -
So, 18.02. 22:20 keine Meldung -
So, 18.02. 22:10 keine Meldung -
So, 18.02. 22:00 0.0 l/m2 in 1 Std. -
So, 18.02. 21:50 keine Meldung -
So, 18.02. 21:30 0.0 l/m2 in 1 Std. -
So, 18.02. 21:00 0.0 l/m2 in 1 Std. -
So, 18.02. 20:30 0.0 l/m2 in 1 Std. -
So, 18.02. 20:00 0.0 l/m2 in 1 Std. -
Ortszeit Stärke Spitze Richtung
km/h Bft. km/h Grad Sektor
So, 18.02. 19:00 4 1 18 140° SO
So, 18.02. 13:00 6 1 17 120° SO
So, 18.02. 7:00 4 1 7 120° SO
So, 18.02. 1:00 4 1 14 260° W
Sa, 17.02. 19:00 7 2 25 350° N
Sa, 17.02. 13:00 13 3 26 80° O
Sa, 17.02. 7:00 4 1 22 100° O
Sa, 17.02. 1:00 4 1 7 90° O
Ortszeit Stärke Spitze Richtung
km/h Bft. km/h Grad Sektor
So, 18.02. 23:00 2 1 6 80° O
So, 18.02. 22:40 2 1 - 210° SW
So, 18.02. 22:30 0 0 7 - -
So, 18.02. 22:20 0 0 - 170° S
So, 18.02. 22:10 2 1 - 130° SO
So, 18.02. 22:00 4 1 7 100° O
So, 18.02. 21:50 4 1 - 100° O
So, 18.02. 21:30 4 1 7 100° O
So, 18.02. 21:00 4 1 7 120° SO
So, 18.02. 20:30 4 1 7 150° SO
So, 18.02. 20:00 6 1 7 100° O
Ortszeit Untergrenze Bedeckung Gattung
total tief tief mittel hoch
So, 18.02. 19:00 720 m 8/8 8/8 - - -
So, 18.02. 13:00 30 m 8/8 8/8 - - -
So, 18.02. 7:00 <30 m 8/8 8/8 - - -
So, 18.02. 1:00 780 m 7/8 7/8 - - -
Sa, 17.02. 19:00 240 m 7/8 7/8 - - -
Sa, 17.02. 13:00 60 m 7/8 7/8 - - -
Sa, 17.02. 7:00 2700 m 7/8 6/8 - - -
Sa, 17.02. 1:00 9000 m 2/8 0/8 - - -
Ortszeit Bedeckungsgrad in Achtel und Wolkenuntergrenze
So, 18.02. 23:00 8(780m)
So, 18.02. 22:40 8(780m)
So, 18.02. 22:30 8(780m)
So, 18.02. 22:20 8(780m)
So, 18.02. 22:10 8(750m)
So, 18.02. 22:00 8(720m)
So, 18.02. 21:50 8(720m)
So, 18.02. 21:30 8(660m)
So, 18.02. 21:00 8(660m)
So, 18.02. 20:30 8(690m)
So, 18.02. 20:00 8(720m)
Ortszeit Luftdruck NN (hPa) Tendenz (hPa in 3 Std.)
So, 18.02. 19:00 1027 - 0,4
So, 18.02. 13:00 1029 - 0,2
So, 18.02. 7:00 1029 + 0,7
So, 18.02. 1:00 1027 + 1,5
Sa, 17.02. 19:00 1023 + 2,6
Sa, 17.02. 13:00 1020 - 0,1
Sa, 17.02. 7:00 1022 - 2,2
Sa, 17.02. 1:00 1027 - 0,3
Ortszeit Luftdruck NN (hPa) Tendenz (hPa in 3 Std.)
So, 18.02. 23:00 1026 - 1,3
So, 18.02. 22:40 1026 keine Meldung
So, 18.02. 22:30 1026 - 1,4
So, 18.02. 22:20 1026 keine Meldung
So, 18.02. 22:10 1026 keine Meldung
So, 18.02. 22:00 1026 - 1,6
So, 18.02. 21:50 1026 keine Meldung
So, 18.02. 21:30 1026 - 1,4
So, 18.02. 21:00 1026 - 1,1
So, 18.02. 20:30 1027 - 0,9
So, 18.02. 20:00 1027 - 0,7
Ortszeit Schneehöhe (cm)
So, 18.02. 19:00 0
So, 18.02. 13:00 0
So, 18.02. 7:00 1
So, 18.02. 1:00 1
Sa, 17.02. 19:00 -
Sa, 17.02. 13:00 0
Sa, 17.02. 7:00 0
Sa, 17.02. 1:00 0
Ortszeit Schneehöhe (cm)
So, 18.02. 23:00 0
So, 18.02. 22:40 0
So, 18.02. 22:30 0
So, 18.02. 22:20 0
So, 18.02. 22:10 0
So, 18.02. 22:00 0
So, 18.02. 21:50 0
So, 18.02. 21:30 0
So, 18.02. 21:00 0
So, 18.02. 20:30 0
So, 18.02. 20:00 0
Link zu dieser Seite / Seite empfehlen

Das Wetter in ...